Tracking 19572 objects as of 24-Feb-2019
HD Live streaming from Space Station
objects crossing your sky now

EXPRESS 2

Track EXPRESS 2 now!
EXPRESS 2 is classified as:


NORAD ID: 24435
Int'l Code: 1996-058A
Perigee: 35,724.5 km
Apogee: 35,842.1 km
Inclination: 14.6 °
Period: 1,435.6 minutes
Semi major axis: 42154 km
RCS: 10 m2 (large)
Launch date: September 26, 1996
Source: Commonwealth of Independent States (former USSR) (CIS)
Launch site: TYURATAM MISSILE AND SPACE COMPLEX (TTMTR)
aabbcc
Your satellite tracking list
Your tracking list is empty




NASA's NSSDC Master Catalog

Two Line Element Set (TLE):
1 24435U 96058A   19054.02193514  .00000053  00000-0  00000+0 0  9997
2 24435  14.5504  16.2845 0013955 309.9805 246.5862  1.00309118 82064
Source of the keplerian elements: AFSPC